TimeEST,TemperatureF,Dew PointF,Humidity,Sea Level PressureIn,VisibilityMPH,Wind Direction,Wind SpeedMPH,Gust SpeedMPH,PrecipitationIn,Events,Conditions,WindDirDegrees,DateUTC
12:54 AM,64.0,59.0,84,30.19,10.0,South,8.1,19.6,N/A,,Overcast,180,2012-11-13 05:54:00
1:54 AM,64.0,59.0,84,30.17,10.0,South,9.2,-,N/A,,Overcast,190,2012-11-13 06:54:00
2:54 AM,64.9,59.0,81,30.16,10.0,SSW,12.7,-,N/A,,Overcast,200,2012-11-13 07:54:00
3:54 AM,66.0,60.1,81,30.16,10.0,SSW,11.5,-,0.00,,Overcast,210,2012-11-13 08:54:00
4:21 AM,57.2,51.8,82,30.20,10.0,NW,10.4,26.5,N/A,,Overcast,310,2012-11-13 09:21:00
4:38 AM,55.4,51.8,88,30.20,8.0,North,9.2,20.7,0.00,Rain,Light Rain,350,2012-11-13 09:38:00
4:50 AM,53.6,50.0,88,30.21,10.0,NNW,8.1,18.4,0.00,Rain,Light Rain,330,2012-11-13 09:50:00
4:54 AM,54.0,50.0,86,30.21,10.0,North,8.1,18.4,0.00,Rain,Light Rain,360,2012-11-13 09:54:00
5:35 AM,51.8,46.4,82,30.25,10.0,NNW,13.8,21.9,0.00,,Overcast,340,2012-11-13 10:35:00
5:45 AM,51.8,44.6,76,30.25,10.0,NNW,8.1,23.0,0.00,,Overcast,340,2012-11-13 10:45:00
5:54 AM,50.0,45.0,83,30.25,10.0,North,12.7,19.6,0.00,,Overcast,350,2012-11-13 10:54:00
6:54 AM,50.0,43.0,77,30.28,10.0,North,9.2,-,N/A,,Overcast,350,2012-11-13 11:54:00
7:16 AM,48.2,44.6,87,30.29,10.0,North,8.1,18.4,N/A,,Overcast,350,2012-11-13 12:16:00
7:54 AM,48.9,44.1,83,30.31,10.0,North,11.5,17.3,N/A,,Overcast,350,2012-11-13 12:54:00
8:54 AM,46.9,41.0,80,30.33,10.0,North,13.8,25.3,0.00,Rain,Light Rain,360,2012-11-13 13:54:00
9:01 AM,46.4,41.0,81,30.33,8.0,North,8.1,19.6,0.00,Rain,Light Rain,360,2012-11-13 14:01:00
9:54 AM,45.0,39.9,82,30.36,7.0,Variable,4.6,-,0.00,Rain,Light Rain,0,2012-11-13 14:54:00
10:23 AM,44.6,41.0,87,30.37,7.0,NW,5.8,-,0.00,Rain,Light Rain,310,2012-11-13 15:23:00
10:44 AM,44.6,41.0,87,30.38,3.0,Variable,5.8,-,0.00,Rain,Light Rain,0,2012-11-13 15:44:00
10:54 AM,44.1,41.0,89,30.38,4.0,NNW,8.1,16.1,0.00,Rain,Light Rain,330,2012-11-13 15:54:00
11:18 AM,44.6,41.0,87,30.35,3.0,NNW,8.1,-,0.00,Rain,Light Rain,340,2012-11-13 16:18:00
11:54 AM,45.0,41.0,86,30.35,10.0,North,9.2,-,0.00,,Overcast,350,2012-11-13 16:54:00
12:50 PM,44.6,39.2,81,30.34,10.0,North,5.8,-,0.00,Rain,Light Rain,350,2012-11-13 17:50:00
12:54 PM,45.0,41.0,86,30.34,10.0,Variable,5.8,-,0.00,Rain,Light Rain,0,2012-11-13 17:54:00
1:04 PM,44.6,41.0,87,30.34,10.0,NNW,9.2,-,0.00,,Overcast,340,2012-11-13 18:04:00
1:11 PM,44.6,41.0,87,30.34,10.0,North,5.8,-,0.00,,Overcast,350,2012-11-13 18:11:00
1:54 PM,45.0,41.0,86,30.33,10.0,NNW,5.8,-,0.00,,Overcast,340,2012-11-13 18:54:00
2:03 PM,44.6,41.0,87,30.33,10.0,NNW,6.9,-,N/A,,Overcast,330,2012-11-13 19:03:00
2:54 PM,45.0,39.9,82,30.33,10.0,North,9.2,-,0.00,,Overcast,360,2012-11-13 19:54:00
3:39 PM,46.4,39.2,76,30.35,10.0,North,4.6,-,0.00,Rain,Light Rain,360,2012-11-13 20:39:00
3:54 PM,45.0,39.0,80,30.35,10.0,North,4.6,-,0.00,,Overcast,350,2012-11-13 20:54:00
4:54 PM,45.0,37.9,76,30.37,10.0,NNW,4.6,-,N/A,,Overcast,340,2012-11-13 21:54:00
5:54 PM,45.0,37.0,74,30.39,10.0,Calm,Calm,-,0.00,,Overcast,0,2012-11-13 22:54:00
6:54 PM,45.0,36.0,71,30.40,10.0,NNW,4.6,-,N/A,,Overcast,340,2012-11-13 23:54:00
7:54 PM,45.0,35.1,68,30.42,10.0,Calm,Calm,-,N/A,,Unknown,0,2012-11-14 00:54:00
8:54 PM,44.1,34.0,68,30.43,10.0,North,3.5,-,N/A,,Overcast,350,2012-11-14 01:54:00
9:54 PM,42.1,32.0,67,30.43,10.0,North,4.6,-,N/A,,Partly Cloudy,350,2012-11-14 02:54:00
10:54 PM,39.9,32.0,73,30.44,10.0,NNW,5.8,-,N/A,,Clear,340,2012-11-14 03:54:00
11:54 PM,39.0,32.0,76,30.45,10.0,NNW,4.6,-,N/A,,Clear,340,2012-11-14 04:54:00